Flag for Germany Weather past 2 weeks in Filderstadt, Baden-Württemberg, Germany

Now
68 °F

Mild.


Feels Like: 68 °F
Forecast: 64 / 87 °F
Wind: 1 mph from West

Location: Stuttgart-Echterdingen

Current Time: Aug 30, 2015 at 2:27:40 AM

Latest Report: Aug 30, 2015 at 2:00 AM


Visibility: N/A

Pressure: 30.09 "Hg

Humidity: 79%

Dew point: 62 °F

Location of FilderstadtLocation

Historic Weather in Filderstadt — Graph

°F

Filderstadt temperature yesterday

Maximum temperature yesterday: 89 °F (at 5:00 PM)
Minimum temperature yesterday: 62 °F (at 6:00 AM)
Average temperature yesterday: 76 °F

Past Weeks' High & Low Weather Summary

 TemperatureHumidityPressure
High89 °F (Aug 29, 5:00 PM)97% (Aug 20, 8:00 AM)30.28 "Hg (Aug 20, 8:00 AM)
Low48 °F (Aug 26, 7:00 AM)27% (Aug 27, 3:00 PM)29.67 "Hg (Aug 24, 2:00 PM)
Average65 °F70%30.00 "Hg
* Reported Aug 15 1:00 AM — Aug 30 1:00 AM, Filderstadt, Weather by CustomWeather, © 2015

Note: Actual official high and low records may vary slightly from our data, if they occured in-between our weather recording intervals... More about our weather records

Advertising

Filderstadt weather history for previous 24 hours

 ConditionsComfort  
Time TempWeatherWind HumidityBarometerVisibility
1:00 AM
Sun, Aug 30
70 °FPassing clouds.1 mph73%30.09 "Hg31 mi
10:00 PM
Sat, Aug 29
77 °FPassing clouds.1 mph57%30.07 "Hg34 mi
9:00 PM80 °FPassing clouds.1 mph50%30.06 "Hg34 mi
8:00 PM83 °FPartly sunny.3 mph47%30.04 "Hg34 mi
7:00 PM87 °FScattered clouds.3 mph38%30.03 "Hg34 mi
6:00 PM89 °FScattered clouds.2 mph33%30.04 "Hg34 mi
5:00 PM89 °FScattered clouds.2 mph35%30.06 "Hg31 mi
4:00 PM89 °FHot.1 mph37%30.07 "HgN/A
3:00 PM88 °FPassing clouds.2 mph38%30.09 "Hg31 mi
2:00 PM85 °FPassing clouds.2 mph42%30.11 "Hg28 mi
1:00 PM82 °FPassing clouds.2 mph52%30.14 "Hg25 mi
12:00 PM79 °FScattered clouds.1 mph59%30.16 "Hg25 mi
10:00 AM72 °FPassing clouds.1 mph75%30.18 "Hg19 mi
9:00 AM68 °FPassing clouds.1 mph83%30.19 "Hg19 mi
8:00 AM66 °FPassing clouds.No wind91%30.19 "Hg19 mi
7:00 AM63 °FPassing clouds.1 mph96%30.19 "Hg19 mi
6:00 AM62 °FPassing clouds.No wind96%30.19 "Hg19 mi
4:00 AM62 °FPassing clouds.1 mph91%30.19 "Hg25 mi
3:00 AM63 °FPassing clouds.2 mph91%30.19 "Hg31 mi
2:00 AM65 °FPassing clouds.1 mph88%30.19 "Hg25 mi
Weather by CustomWeather, © 2015

See weather overviewHow to use our weather pages